Location: Beaurevoir
(49.9971°N, 3.3085°E)
Time: 10:47:52
(UTC+00:00)

RESURS DK-1 - Pass Details

Date: 23 May 2024
Orbit: 541 x 547 km, 69.9° (Epoch: 14 June)

Event Time Altitude Azimuth Distance (km) Brightness Sun altitude
Rises 02:03:06 0° 330° (NNW) 2,722 6.2 -12.9°
Reaches altitude 10° 02:05:19 10° 334° (NNW) 1,826 5.4 -12.7°
Maximum altitude 02:09:22 67° 57° (ENE) 597 2.7 -12.3°
Drops below altitude 10° 02:13:24 10° 141° (SE) 1,816 4.8 -12.0°
Sets 02:15:36 0° 144° (SE) 2,706 5.7 -11.8°
